Location: Campestrin
(46.4667°N, 11.7167°E)
Time: 10:25:47
(UTC+00:00)

Cosmos 2333 - Pass Details

Date: 18 April 2021
Orbit: 829 x 866 km, 70.9° (Epoch: 06 May)

Event Time Altitude Azimuth Distance (km) Brightness Sun altitude
Rises 18:59:09 0° 331° (NNW) 3,458 8.4 -9.4°
Reaches altitude 10° 19:01:38 10° 330° (NNW) 2,514 7.6 -9.8°
Maximum altitude 19:07:24 75° 247° (WSW) 895 4.4 -10.7°
Drops below altitude 10° 19:13:05 10° 163° (SSE) 2,479 6.2 -11.5°
Enters shadow 19:14:00 - 162° (SSE) 2,821 6.5 -11.7°
